LZB985 LBSF-LBBG

Flight info

Callsign LZB985
Flight time 0h 34m
Altitude 27000
Route GAPVO3T/27 GAPVO T228 RUEXX
Aircraft A319/M-SDE3FGHIRWY/LB1

Departure

Time 2026-04-30 14:18
Airport Sofia Airport (LBSF)

Arrival

Time 2026-04-30 14:53
Airport Burgas Airport (LBBG)
Time Latitude Longitude Altitude Speed Heading
2026-04-30 14:03 42.68991 23.40923 1750 ft 0 kts 162°
2026-04-30 14:12 42.68990 23.40923 1742 ft 1 kts 162°
2026-04-30 14:12 42.68976 23.40930 1750 ft 4 kts 162°
2026-04-30 14:12 42.68943 23.40952 1750 ft 7 kts 134°
2026-04-30 14:12 42.68946 23.41028 1749 ft 10 kts 72°
2026-04-30 14:13 42.68970 23.41134 1747 ft 13 kts 71°
2026-04-30 14:13 42.69027 23.41223 1745 ft 13 kts 16°
2026-04-30 14:13 42.69114 23.41191 1746 ft 13 kts 339°
2026-04-30 14:13 42.69204 23.41150 1747 ft 15 kts 345°
2026-04-30 14:14 42.69306 23.41170 1750 ft 15 kts 12°
2026-04-30 14:14 42.69410 23.41201 1750 ft 16 kts 12°
2026-04-30 14:14 42.69486 23.41270 1748 ft 14 kts 88°
2026-04-30 14:14 42.69479 23.41410 1745 ft 15 kts 95°
2026-04-30 14:15 42.69469 23.41558 1750 ft 17 kts 95°
2026-04-30 14:15 42.69458 23.41736 1750 ft 22 kts 94°
2026-04-30 14:15 42.69445 23.41966 1751 ft 27 kts 95°
2026-04-30 14:15 42.69428 23.42238 1751 ft 29 kts 95°
2026-04-30 14:16 42.69415 23.42462 1751 ft 15 kts 95°
2026-04-30 14:16 42.69408 23.42575 1744 ft 12 kts 95°
2026-04-30 14:16 42.69401 23.42692 1752 ft 13 kts 91°
2026-04-30 14:16 42.69460 23.42756 1752 ft 12 kts 355°
2026-04-30 14:17 42.69517 23.42676 1750 ft 12 kts 305°
2026-04-30 14:17 42.69575 23.42579 1751 ft 14 kts 317°
2026-04-30 14:17 42.69607 23.42402 1750 ft 40 kts 274°
2026-04-30 14:17 42.69647 23.41738 1752 ft 99 kts 275°
2026-04-30 14:18 42.69719 23.40548 1749 ft 153 kts 275°
2026-04-30 14:18 42.69847 23.39008 2170 ft 169 kts 286°
2026-04-30 14:18 42.71178 23.36348 3472 ft 187 kts 319°
2026-04-30 14:19 42.73889 23.35115 4570 ft 238 kts 11°
2026-04-30 14:19 42.75349 23.36255 5376 ft 252 kts 48°
2026-04-30 14:19 42.76022 23.38472 6462 ft 264 kts 81°
2026-04-30 14:20 42.75970 23.40999 7468 ft 271 kts 92°
2026-04-30 14:20 42.75724 23.43580 8374 ft 279 kts 97°
2026-04-30 14:20 42.75071 23.48955 10121 ft 296 kts 99°
2026-04-30 14:21 42.74730 23.51827 10559 ft 319 kts 99°
2026-04-30 14:21 42.74382 23.54920 10905 ft 341 kts 98°
2026-04-30 14:21 42.73689 23.61488 12208 ft 358 kts 99°
2026-04-30 14:22 42.73344 23.64877 12913 ft 365 kts 99°
2026-04-30 14:22 42.72818 23.71844 14290 ft 376 kts 94°
2026-04-30 14:22 42.72697 23.75420 14906 ft 382 kts 93°
2026-04-30 14:23 42.72533 23.82735 16141 ft 392 kts 93°
2026-04-30 14:23 42.72361 23.90232 17378 ft 402 kts 94°
2026-04-30 14:24 42.72144 23.97992 18586 ft 412 kts 95°
2026-04-30 14:24 42.72027 24.01889 19123 ft 417 kts 95°
2026-04-30 14:25 42.71779 24.09851 20217 ft 426 kts 95°
2026-04-30 14:25 42.71532 24.17972 21290 ft 434 kts 95°
2026-04-30 14:26 42.71274 24.26258 22351 ft 443 kts 95°
2026-04-30 14:26 42.71141 24.30461 22872 ft 447 kts 95°
2026-04-30 14:26 42.70871 24.38966 23927 ft 452 kts 95°
2026-04-30 14:27 42.70728 24.43261 24328 ft 458 kts 95°
2026-04-30 14:27 42.70581 24.47609 24690 ft 463 kts 95°
2026-04-30 14:27 42.70430 24.51999 25069 ft 467 kts 95°
2026-04-30 14:28 42.70118 24.60879 25830 ft 474 kts 95°
2026-04-30 14:28 42.69960 24.65385 26222 ft 478 kts 95°
2026-04-30 14:28 42.69802 24.69907 26613 ft 482 kts 95°
2026-04-30 14:28 42.69640 24.74475 27003 ft 486 kts 95°
2026-04-30 14:29 42.69314 24.83618 27231 ft 476 kts 95°
2026-04-30 14:29 42.69042 24.91099 27217 ft 471 kts 95°
2026-04-30 14:30 42.68470 25.05937 27209 ft 471 kts 95°
2026-04-30 14:31 42.68120 25.14817 27216 ft 471 kts 95°
2026-04-30 14:31 42.67764 25.23700 27214 ft 470 kts 95°
2026-04-30 14:31 42.67587 25.28147 27218 ft 470 kts 95°
2026-04-30 14:32 42.67230 25.37016 27214 ft 470 kts 96°
2026-04-30 14:32 42.67047 25.41458 27226 ft 470 kts 96°
2026-04-30 14:32 42.66862 25.45898 27221 ft 470 kts 96°
2026-04-30 14:33 42.66673 25.50326 27198 ft 470 kts 96°
2026-04-30 14:33 42.66284 25.59251 27197 ft 469 kts 96°
2026-04-30 14:33 42.66090 25.63681 27187 ft 469 kts 95°
2026-04-30 14:34 42.65898 25.68101 27192 ft 470 kts 96°
2026-04-30 14:34 42.65704 25.72535 27191 ft 470 kts 96°
2026-04-30 14:34 42.65506 25.76972 27148 ft 472 kts 96°
2026-04-30 14:34 42.65304 25.81449 26249 ft 479 kts 96°
2026-04-30 14:35 42.64962 25.88932 25260 ft 475 kts 95°
2026-04-30 14:35 42.64686 25.94886 24479 ft 470 kts 95°
2026-04-30 14:35 42.64480 25.99292 23935 ft 465 kts 95°
2026-04-30 14:36 42.64273 26.03656 23333 ft 460 kts 95°
2026-04-30 14:36 42.64068 26.07964 22802 ft 454 kts 95°
2026-04-30 14:36 42.63865 26.12212 22264 ft 448 kts 95°
2026-04-30 14:36 42.63664 26.16414 21730 ft 443 kts 95°
2026-04-30 14:37 42.63465 26.20575 21174 ft 440 kts 96°
2026-04-30 14:37 42.63262 26.24753 20608 ft 436 kts 96°
2026-04-30 14:37 42.63058 26.28849 20029 ft 433 kts 96°
2026-04-30 14:37 42.62852 26.32919 19455 ft 430 kts 96°
2026-04-30 14:38 42.62647 26.36963 18867 ft 428 kts 96°
2026-04-30 14:38 42.62446 26.40969 18405 ft 421 kts 97°
2026-04-30 14:38 42.62247 26.44928 17752 ft 418 kts 97°
2026-04-30 14:38 42.62048 26.48843 17081 ft 415 kts 97°
2026-04-30 14:39 42.61853 26.52689 16842 ft 397 kts 97°
2026-04-30 14:39 42.61675 26.56307 16706 ft 371 kts 97°
2026-04-30 14:39 42.61506 26.59716 16422 ft 354 kts 97°
2026-04-30 14:40 42.61160 26.66219 15411 ft 339 kts 98°
2026-04-30 14:40 42.60985 26.69388 14861 ft 334 kts 98°
2026-04-30 14:40 42.60812 26.72517 14323 ft 330 kts 98°
2026-04-30 14:40 42.60644 26.75611 13762 ft 326 kts 98°
2026-04-30 14:41 42.60454 26.78654 13170 ft 321 kts 102°
2026-04-30 14:41 42.59942 26.81555 12594 ft 313 kts 113°
2026-04-30 14:41 42.59063 26.84212 12015 ft 305 kts 124°
2026-04-30 14:41 42.57968 26.86650 11437 ft 302 kts 125°
2026-04-30 14:42 42.56879 26.89069 10850 ft 299 kts 124°
2026-04-30 14:42 42.56150 26.90697 10458 ft 298 kts 123°
2026-04-30 14:42 42.55080 26.93087 10072 ft 295 kts 123°
2026-04-30 14:42 42.54006 26.95485 9813 ft 300 kts 123°
2026-04-30 14:43 42.52915 26.97914 9248 ft 299 kts 123°
2026-04-30 14:43 42.51846 27.00294 8762 ft 294 kts 123°
2026-04-30 14:43 42.50793 27.02638 8279 ft 288 kts 122°
2026-04-30 14:43 42.49761 27.04930 7824 ft 282 kts 122°
2026-04-30 14:44 42.48748 27.07180 7367 ft 277 kts 122°
2026-04-30 14:44 42.47751 27.09393 6923 ft 273 kts 122°
2026-04-30 14:44 42.46770 27.11569 6480 ft 268 kts 121°
2026-04-30 14:44 42.45807 27.13700 6033 ft 263 kts 121°
2026-04-30 14:45 42.44862 27.15789 5589 ft 257 kts 120°
2026-04-30 14:45 42.43941 27.17823 5183 ft 250 kts 120°
2026-04-30 14:45 42.43053 27.19780 4922 ft 236 kts 119°
2026-04-30 14:45 42.42228 27.21589 4849 ft 216 kts 118°
2026-04-30 14:46 42.41472 27.23247 4776 ft 198 kts 118°
2026-04-30 14:46 42.40785 27.24759 4690 ft 181 kts 118°
2026-04-30 14:46 42.40277 27.26246 4651 ft 165 kts 102°
2026-04-30 14:46 42.40182 27.27718 4542 ft 150 kts 85°
2026-04-30 14:47 42.40411 27.29093 4294 ft 154 kts 69°
2026-04-30 14:47 42.40977 27.30364 3864 ft 163 kts 52°
2026-04-30 14:47 42.41807 27.31472 3483 ft 165 kts 47°
2026-04-30 14:47 42.42592 27.32494 3418 ft 155 kts 47°
2026-04-30 14:48 42.43365 27.33505 3352 ft 151 kts 47°
2026-04-30 14:48 42.44111 27.34484 3286 ft 149 kts 47°
2026-04-30 14:48 42.44857 27.35468 3091 ft 149 kts 47°
2026-04-30 14:48 42.45597 27.36444 2885 ft 149 kts 46°
2026-04-30 14:49 42.46337 27.37418 2693 ft 147 kts 46°
2026-04-30 14:49 42.47066 27.38380 2495 ft 145 kts 46°
2026-04-30 14:49 42.47769 27.39311 2309 ft 138 kts 47°
2026-04-30 14:49 42.48443 27.40203 2136 ft 132 kts 46°
2026-04-30 14:50 42.49716 27.41886 1797 ft 125 kts 45°
2026-04-30 14:50 42.50332 27.42700 1661 ft 123 kts 45°
2026-04-30 14:51 42.51531 27.44280 1322 ft 117 kts 46°
2026-04-30 14:51 42.52106 27.45038 1169 ft 115 kts 45°
2026-04-30 14:51 42.53267 27.46568 853 ft 118 kts 45°
2026-04-30 14:52 42.53857 27.47348 716 ft 116 kts 46°
2026-04-30 14:52 42.55003 27.48865 413 ft 115 kts 48°
2026-04-30 14:52 42.55579 27.49629 286 ft 116 kts 47°
2026-04-30 14:53 42.56630 27.51022 173 ft 74 kts 44°
2026-04-30 14:53 42.56849 27.51312 174 ft 18 kts 44°
2026-04-30 14:54 42.56833 27.51480 174 ft 3 kts 135°
2026-04-30 14:54 42.56793 27.51534 174 ft 2 kts 135°
2026-04-30 14:55 42.56763 27.51575 174 ft 3 kts 135°
2026-04-30 14:55 42.56739 27.51608 174 ft 7 kts 139°
2026-04-30 14:55 42.56682 27.51676 174 ft 6 kts 98°
2026-04-30 14:56 42.56681 27.51691 174 ft 0 kts 94°